This demonstration page uses our WeatherBlox Daily Observations layout. Learn more.

36.17497, -115.13722

Hourly Observations for February 3, 2015

Temp ( °F °C ) Dew Point ( °F °C ) Humidity (%) Winds ( mph kmh ) Pressure ( in mb ) Visibility ( mi km ) Precip ( " mm )
12:53 am 00:53 Clear 48 8.9 37 2.8 66 66 NNW 3 6 30.11 1020 10 16.0934 0 0
1:53 am 01:53 Clear 49 9.4 36 2.2 61 61 WNW 8 13 30.11 1020 10 16.0934 0 0
2:53 am 02:53 Clear 49 9.4 35 1.7 59 59 WNW 3 6 30.11 1020 10 16.0934 0 0
3:53 am 03:53 Clear 47 8.3 35 1.7 63 63 WNW 6 9 30.11 1020 10 16.0934 0 0
4:53 am 04:53 Clear 47 8.3 34 1.1 61 61 NW 7 11 30.12 1020 10 16.0934 0 0
5:53 am 05:53 Clear 45 7.2 34 1.1 66 66 NW 5 7 30.14 1021 10 16.0934 0 0
6:53 am 06:53 Sunny 47 8.3 34 1.1 61 61 WNW 5 7 30.15 1021 10 16.0934 0 0
7:53 am 07:53 Sunny 50 10 36 2.2 59 59 Calm 30.16 1021 10 16.0934 0 0
8:53 am 08:53 Sunny 54 12.2 35 1.7 49 49 Calm 30.18 1022 10 16.0934 0 0
9:53 am 09:53 Sunny 57 13.9 35 1.7 44 44 SE 5 7 30.19 1023 10 16.0934 0 0
10:53 am 10:53 Sunny 61 16.1 35 1.7 38 38 Calm 30.19 1022 10 16.0934 0 0
11:53 am 11:53 Sunny 65 18.3 33 0.6 31 31 Calm 30.15 1021 10 16.0934 0 0
12:53 pm 12:53 Sunny 65 18.3 34 1.1 32 32 ESE 3 6 30.11 1020 10 16.0934 0 0
1:53 pm 13:53 Sunny 66 18.9 34 1.1 30 30 E 5 7 30.09 1019 10 16.0934 0 0
2:53 pm 14:53 Sunny 66 18.9 34 1.1 30 30 SSE 5 7 30.07 1018 10 16.0934 0 0
3:53 pm 15:53 Sunny 66 18.9 34 1.1 30 30 ESE 5 7 30.07 1018 10 16.0934 0 0
4:53 pm 16:53 Sunny 65 18.3 35 1.7 33 33 ESE 3 6 30.09 1019 10 16.0934 0 0
5:53 pm 17:53 Clear 62 16.7 35 1.7 37 37 Calm 30.12 1020 10 16.0934 0 0
6:53 pm 18:53 Clear 59 15 36 2.2 42 42 WSW 3 6 30.12 1020 10 16.0934 0 0
7:53 pm 19:53 Clear 56 13.3 38 3.3 51 51 NW 6 9 30.13 1020 10 16.0934 0 0
8:53 pm 20:53 Clear 54 12.2 40 4.4 59 59 NW 7 11 30.13 1020 10 16.0934 0 0
9:53 pm 21:53 Clear 52 11.1 40 4.4 64 64 NW 6 9 30.14 1021 10 16.0934 0 0
10:53 pm 22:53 Clear 52 11.1 39 3.9 61 61 SSW 5 7 30.13 1020 10 16.0934 0 0
11:53 pm 23:53 Clear 52 11.1 38 3.3 59 59 SSW 3 6 30.12 1020 10 16.0934 0 0

Powered by AerisWeather